#timestamp,LO_Frequency,Hit,StdDev 
1512658815.7,286047004.5,N
1512658835.5,286047006.7,N
1512658855.4,286046998.5,N
1512658875.2,286046998.6,N
1512658895.1,286047004.4,N
1512658896.0,286047004.4,N
1512658915.8,286047005.4,N
1512658935.6,286047004.6,N
1512658955.5,286047006.6,N
1512658975.3,286047008.6,N
1512658995.1,286047011.7,Y
1512659015.9,286047008.0,P
1512659035.7,286047003.1,N
1512659055.6,286047001.2,N
1512659075.4,286046997.0,N
1512659095.2,286046998.7,N
1512659115.1,286047003.7,N
1512659116.0,286047003.7,N
1512659135.8,286047005.1,N
1512659155.7,286047007.0,N
1512659175.5,286046995.5,N
1512659195.3,286046987.8,Y
1512659215.2,286046983.1,P
1512659235.0,286046978.7,N
1512659235.9,286046978.7,N
1512659255.8,286046986.3,N
1512659275.6,286046996.6,N
1512659295.4,286047000.0,N
1512659315.3,286046996.8,N
1512659335.1,286046993.1,N
1512659355.8,286046992.3,N
1512659375.7,286047001.0,N
1512659395.5,286046996.7,N
1512659415.4,286046982.9,N
1512659435.2,286046973.1,Y
1512659455.0,286046981.8,P
1512659455.9,286046981.8,P
1512659475.8,286046978.2,P
1512659495.6,286046989.9,N
1512659515.5,286046997.0,N
1512659535.3,286046998.0,N
1512659555.1,286046985.9,N
1512659575.9,286046991.5,N
1512659595.7,286047003.1,N
1512659615.5,286047005.4,N
1512659635.4,286047007.5,N
1512659655.2,286047007.5,N
1512659675.1,286047000.2,N
1512659676.0,286047000.2,N
1512659695.8,286047003.7,N
1512659715.6,286047002.8,N
1512659735.5,286046999.0,N
1512659755.3,286046998.3,N
1512659775.2,286046994.9,N
1512659795.9,286046993.8,N
1512659815.7,286046990.7,N
1512659835.6,286046995.1,N
1512659855.4,286047002.4,N
1512659875.2,286047000.8,N
1512659895.1,286046999.7,N
1512659896.0,286046999.7,N
1512659915.8,286047001.9,N
1512659935.7,286046994.9,N
1512659955.5,286046989.9,N
1512659975.3,286046987.2,N
1512659995.2,286046987.5,N
1512660015.0,286046986.9,N
1512660015.9,286046986.9,N
1512660035.8,286046984.3,N
1512660055.6,286046990.9,N
1512660075.4,286046991.0,N
1512660095.3,286046990.6,N
1512660115.1,286046986.6,N
1512660135.9,286046974.8,Y
1512660155.7,286046973.0,P
1512660175.5,286046969.9,N
1512660195.4,286046966.4,N
1512660215.2,286046964.6,Y
1512660235.0,286046987.4,P
1512660235.9,286046987.4,N
1512660255.8,286046986.7,N
1512660275.6,286046986.4,N
1512660295.5,286046987.2,Y
1512660315.3,286047005.0,P
1512660335.1,286047007.5,N
1512660355.9,286047004.5,N
1512660375.7,286047006.2,N
1512660395.6,286047004.5,N
1512660415.4,286047004.1,N
1512660435.2,286047001.5,N
1512660455.1,286047002.1,N
1512660456.0,286047002.1,N
1512660475.8,286047001.0,N
1512660495.7,286046996.8,N
1512660515.5,286046999.5,N
1512660535.3,286047000.0,N
1512660555.2,286047002.2,N
1512660575.9,286047004.2,N
1512660595.7,286047005.1,N
1512660615.6,286047006.3,N
1512660635.4,286047009.1,N
1512660655.3,286047007.3,N
1512660675.1,286047008.0,N
1512660676.0,286047008.0,N
1512660695.8,286047006.1,N
1512660715.7,286047008.8,N
1512660735.5,286047008.0,N
1512660755.3,286047009.0,N
1512660775.2,286047010.3,N
1512660795.0,286047009.1,N
1512660795.9,286047009.1,N
1512660815.8,286047009.0,N
1512660835.6,286047008.5,N
1512660855.4,286047008.6,N
1512660875.3,286047008.3,N
1512660895.1,286047009.6,N
1512660915.9,286047012.3,Y
1512660935.7,286047004.8,P
1512660955.5,286047007.3,P
1512660975.4,286047006.7,P
1512660995.2,286047010.7,Y
1512661015.1,286047005.7,P
1512661016.0,286047005.7,P
1512661035.8,286047003.6,P
1512661055.6,286046999.7,N
1512661075.5,286047002.8,N
1512661095.3,286047000.4,N
1512661115.1,286047000.0,N
1512661135.9,286047000.4,N
1512661155.7,286047000.1,N
1512661175.6,286047002.7,N
1512661195.4,286047000.4,N
1512661215.2,286047002.8,N
1512661235.1,286046998.3,N
1512661236.0,286046998.3,N
1512661255.8,286046999.9,N
1512661275.6,286046999.9,N
1512661295.5,286047004.2,N
1512661315.3,286047003.1,N
1512661335.2,286047003.1,N
1512661355.9,286047005.3,N
1512661375.7,286047005.9,N
1512661395.6,286047005.3,N
1512661415.4,286047005.8,N
1512661435.3,286047002.9,N
1512661455.1,286047005.1,N
1512661456.0,286047005.1,N
1512661475.8,286047006.7,N
1512661495.7,286047004.7,N
1512661515.5,286047005.8,N
1512661535.3,286047002.9,N
1512661555.2,286047006.0,N
1512661575.0,286047002.9,N
1512661575.9,286047002.9,N
1512661595.8,286047007.2,N
1512661615.6,286047007.7,Y
1512661635.4,286047009.1,P
1512661655.3,286047005.5,N
1512661675.1,286047002.0,N
1512661695.9,286047001.4,N
1512661715.7,286047002.5,N
1512661735.5,286047002.6,N
1512661755.4,286047001.8,N
1512661775.2,286047002.2,N
1512661795.0,286047000.6,N
1512661795.9,286047000.6,N
1512661815.8,286046998.3,N
1512661835.6,286046996.6,N
1512661855.5,286046998.4,N
1512661875.3,286046998.8,N
1512661895.1,286046998.3,N
1512661915.9,286046998.2,N
1512661935.7,286046999.0,N
1512661955.5,286046997.4,N
1512661975.4,286046997.3,N
1512661995.2,286046997.6,N
1512662015.1,286046996.8,N
1512662016.0,286046996.8,N
1512662035.8,286046995.2,N
1512662055.6,286046996.1,N
1512662075.5,286046995.1,N
1512662095.3,286046998.0,N
1512662115.1,286046995.8,N
1512662135.9,286046994.1,N
1512662155.7,286046993.4,N
1512662175.6,286046995.6,N
1512662195.4,286046995.8,N
1512662215.2,286046995.5,N
1512662235.1,286046997.6,N
1512662236.0,286046997.6,N
1512662255.8,286046997.8,N
1512662275.7,286046998.0,N
1512662295.5,286046997.4,N
1512662315.3,286046997.0,N
1512662335.2,286046997.8,N
1512662355.0,286046999.8,N
1512662355.9,286046999.8,N
1512662375.7,286047000.6,N
1512662395.6,286047001.0,N
